DateTimeUTC,F1_A11,F1_S11,BsB_S11,BsG_S11,BsR_S11,BbsB_S11,BbsG_S11,BbsR_S11,BaB_A11,BaG_A11,BaR_A11,Tu_S11,T_S11,Uu_S11,U_S11,P_S11,T1_A11
2021-08-12T01:00:00Z,00040200,20000000,,,,,,,0000.06,0000.05,-000.22,18.5,25.1,11.1,07.4,0673.9,31.0
2021-08-12T01:01:00Z,00040200,20000000,,,,,,,0000.04,-000.07,0000.06,18.5,25.1,11.1,07.4,0673.9,31.0
2021-08-12T01:02:00Z,00040200,20000000,,,,,,,-000.19,0000.34,-000.09,18.5,25.0,11.1,07.4,0673.9,31.0
2021-08-12T01:03:00Z,00040200,60000000,,,,,,,0000.36,0000.09,0000.40,18.5,25.1,11.1,07.4,0673.9,31.0
2021-08-12T01:04:00Z,00040200,40000000,0002.24,0000.97,0000.43,0000.58,0000.08,0000.09,0000.59,0000.51,0000.57,18.6,24.9,11.0,07.5,0674.8,31.0
2021-08-12T01:05:00Z,00040200,00000000,0002.19,0000.93,0000.58,0000.49,0000.37,0000.23,0000.20,0000.38,0000.35,18.6,24.9,11.1,07.6,0674.8,31.0
2021-08-12T01:06:00Z,00040200,00000000,0002.95,0001.51,0000.61,0000.57,0000.35,0000.03,0000.75,0000.38,-000.04,18.6,24.9,11.1,07.6,0674.8,31.0
2021-08-12T01:07:00Z,00040200,00000000,0001.60,0001.31,0000.71,0000.23,0000.15,0000.09,0000.31,0000.15,0000.33,18.6,24.9,11.2,07.6,0674.8,31.0
2021-08-12T01:08:00Z,00040200,00000000,0001.73,0001.35,0000.44,-000.02,0000.30,0000.03,0000.79,0000.73,0000.39,18.6,24.8,11.2,07.7,0674.8,31.0
2021-08-12T01:09:00Z,00040200,00000000,0002.38,0001.69,0000.39,0000.06,-000.05,-000.11,0000.15,0000.68,0000.35,18.6,24.8,11.3,07.7,0674.8,31.0
2021-08-12T01:10:00Z,00040200,00000000,0001.81,0001.45,0000.81,0001.40,0000.25,0000.26,0000.88,0000.48,0000.73,18.6,24.8,11.3,07.7,0674.7,31.0
2021-08-12T01:11:00Z,00040200,00000000,0001.85,0001.30,0000.42,0000.71,0000.15,0000.17,0000.14,0000.21,0000.11,18.6,24.8,11.2,07.7,0674.8,31.0
2021-08-12T01:12:00Z,00040200,00000000,0002.17,0001.48,0000.90,0000.32,0000.06,0000.29,0000.52,-000.00,0000.15,18.6,24.8,11.2,07.6,0674.8,31.0
2021-08-12T01:13:00Z,00040200,00000000,0001.21,0000.91,0000.50,0000.68,0000.35,-000.04,0000.02,0000.51,0000.56,18.7,24.8,11.2,07.7,0674.8,31.0
2021-08-12T01:14:00Z,00040200,00000000,0002.05,0001.41,0000.48,0000.38,0000.47,-000.01,0000.27,0000.21,-000.41,18.7,24.8,11.2,07.7,0674.8,31.0
2021-08-12T01:15:00Z,00040200,00000000,0002.19,0001.38,0000.49,0001.02,0000.12,0000.27,0000.64,0000.24,0000.83,18.7,24.9,11.2,07.7,0674.8,31.0
2021-08-12T01:16:00Z,00040200,00000000,0002.93,0001.19,0000.50,-000.50,0000.28,0000.21,0000.25,0000.75,0000.20,18.8,24.9,11.1,07.7,0674.8,31.0
2021-08-12T01:17:00Z,00040200,00000000,0001.84,0001.19,0000.52,0000.77,0000.25,0000.19,0000.70,0000.16,0000.57,18.8,24.9,11.2,07.7,0674.8,31.0
2021-08-12T01:18:00Z,00040200,00000000,0001.87,0001.32,0000.20,0000.45,0000.37,-000.12,0000.77,0000.96,0000.51,18.8,24.9,11.2,07.7,0674.8,31.0
2021-08-12T01:19:00Z,00040200,00000000,0002.28,0001.18,0000.42,0000.62,0000.35,-000.11,0000.60,0000.50,0000.26,18.8,24.9,11.2,07.7,0674.8,31.0
2021-08-12T01:20:00Z,00040200,00000000,0001.90,0001.56,0000.48,0000.20,0000.44,0000.01,0000.46,0000.44,0000.20,18.8,24.9,11.2,07.7,0674.8,31.0
2021-08-12T01:21:00Z,00040200,00000000,0002.07,0001.61,0000.41,0001.07,0000.27,0000.50,0000.27,0000.09,0000.32,18.7,24.9,11.3,07.7,0674.8,31.0
2021-08-12T01:22:00Z,00040200,00000000,0003.13,0002.09,0001.30,0000.94,0000.14,0000.35,-001.01,-001.20,-000.77,18.7,24.9,11.3,07.8,0674.7,31.0
2021-08-12T01:23:00Z,00040200,00000000,0003.72,0003.07,0001.77,0000.65,0000.44,0000.28,-000.09,-000.28,-000.47,18.7,24.8,10.1,06.9,0674.7,31.0
2021-08-12T01:24:00Z,00040200,00000000,0004.43,0002.74,0001.99,0000.91,0000.39,0000.26,0000.17,0000.65,0000.06,18.7,24.8,09.8,06.7,0674.7,31.0
2021-08-12T01:25:00Z,00040200,00000000,0003.74,0003.17,0002.07,0000.67,0000.62,0000.37,0000.55,0000.04,-000.13,18.7,24.8,09.7,06.7,0674.7,31.0
2021-08-12T01:26:00Z,00040200,00000000,0004.57,0003.31,0001.74,0000.88,0000.52,-000.04,0000.71,0000.62,0000.57,18.7,24.8,09.6,06.6,0674.6,31.0
2021-08-12T01:27:00Z,00040200,00000000,0003.83,0003.05,0001.59,0000.56,0000.38,0000.35,0000.44,0000.69,0000.62,18.7,24.8,09.5,06.5,0674.6,31.0
2021-08-12T01:28:00Z,00040200,00000000,0004.46,0003.43,0001.96,0000.60,0000.50,0000.26,0000.72,0000.36,0000.38,18.7,24.8,09.5,06.5,0674.7,31.0
2021-08-12T01:29:00Z,00040200,00000000,0003.86,0003.09,0002.19,0000.49,0000.36,0000.42,0000.58,0000.88,0000.54,18.6,24.8,09.5,06.5,0674.7,31.0
2021-08-12T01:30:00Z,00040200,00000000,0003.74,0003.06,0001.88,0000.61,0000.34,0000.80,0000.64,0000.23,0000.50,18.6,24.8,09.2,06.3,0674.6,31.0
2021-08-12T01:31:00Z,00040200,00000000,0003.93,0003.07,0001.79,0000.51,0000.28,0000.00,0000.78,0001.00,0000.20,18.6,24.8,09.2,06.3,0674.7,31.0
2021-08-12T01:32:00Z,00040200,00000000,0003.94,0003.13,0001.70,0000.96,0000.46,0000.42,0001.01,0000.43,0000.58,18.6,24.8,09.2,06.3,0674.7,31.0
2021-08-12T01:33:00Z,00040200,00000000,0004.54,0003.06,0001.70,-000.00,0000.08,0000.19,0000.90,0000.83,0000.81,18.6,24.8,09.3,06.4,0674.7,31.0
2021-08-12T01:34:00Z,00040200,00000000,0004.06,0003.18,0001.89,0000.40,0000.41,-000.09,-000.88,-000.31,-000.40,18.6,24.7,09.1,06.3,0674.7,31.0
2021-08-12T01:35:00Z,00040200,00000000,0004.61,0002.82,0001.94,-000.10,0000.62,0000.35,0000.78,0000.68,0000.18,18.6,24.7,09.2,06.3,0674.7,31.0
2021-08-12T01:36:00Z,00040200,00000000,0004.33,0003.03,0001.83,0000.33,0000.70,0000.38,0000.68,0000.96,0000.67,18.5,24.7,09.1,06.2,0674.7,31.0
2021-08-12T01:37:00Z,00040200,00000000,0004.24,0003.32,0001.82,0000.49,0000.50,0000.21,0000.80,0000.81,0000.58,18.5,24.7,09.1,06.3,0674.7,31.0
2021-08-12T01:38:00Z,00040200,00000000,0003.79,0002.94,0001.62,0000.54,0000.85,-000.26,0000.85,0000.19,0000.55,18.5,24.7,09.1,06.2,0674.7,31.0
2021-08-12T01:39:00Z,00040200,00000000,0004.11,0003.09,0001.84,0000.56,0000.23,0000.33,0000.76,0000.79,0000.54,18.5,24.7,09.2,06.3,0674.7,31.0
2021-08-12T01:40:00Z,00040200,00000000,0003.68,0002.70,0001.89,0000.47,-000.08,0000.29,0000.87,0000.57,0000.36,18.5,24.7,09.2,06.3,0674.7,31.0
2021-08-12T01:41:00Z,00040200,00000000,0005.28,0002.83,0001.89,0001.18,0000.43,0000.15,0000.74,0000.82,0000.71,18.5,24.7,09.1,06.2,0674.7,31.0
2021-08-12T01:42:00Z,00040200,00000000,0004.33,0003.31,0002.05,0001.07,0000.56,-000.05,0000.81,0000.89,0000.66,18.5,24.6,09.2,06.3,0674.7,31.0
2021-08-12T01:43:00Z,00040200,00000000,0004.40,0003.20,0001.98,0000.89,0000.39,0000.30,0001.13,0001.05,0000.73,18.5,24.7,09.2,06.3,0674.7,31.0
2021-08-12T01:44:00Z,00040200,00000000,0003.75,0002.98,0001.73,0001.11,0000.29,0000.54,0000.79,0000.49,0000.31,18.6,24.7,09.2,06.3,0674.7,31.0
2021-08-12T01:45:00Z,00040200,00000000,0004.27,0003.13,0001.94,0000.70,0000.13,0000.49,0000.69,0000.45,0000.70,18.7,24.7,09.0,06.2,0674.7,31.0
2021-08-12T01:46:00Z,00040200,00000000,0004.66,0003.29,0002.08,0000.33,0000.59,0000.51,0000.87,0001.09,0000.15,18.7,24.8,08.9,06.2,0674.7,31.0
2021-08-12T01:47:00Z,00040200,00000000,0003.91,0003.38,0002.35,0000.57,0000.30,0000.04,0000.61,0000.68,0001.03,18.8,24.9,08.8,06.1,0674.8,31.0
2021-08-12T01:48:00Z,00040200,00000000,0005.08,0003.25,0001.93,0000.61,0000.33,0000.23,0001.02,0000.89,0001.00,18.9,24.9,08.8,06.1,0674.8,31.0
2021-08-12T01:49:00Z,00040200,00000000,0005.31,0003.11,0001.89,-000.67,0000.49,0000.44,0000.44,0000.36,0000.23,19.0,25.0,08.7,06.1,0674.8,31.1
2021-08-12T01:50:00Z,00040200,00000000,0004.53,0003.16,0001.87,0000.23,0000.39,0000.43,0001.00,0001.15,0000.20,19.0,25.0,08.7,06.1,0674.8,31.1
2021-08-12T01:51:00Z,00040200,00000000,0003.43,0003.70,0001.91,0000.22,0000.32,0000.10,0000.63,0000.41,0000.81,19.0,25.0,08.6,06.0,0674.8,31.0
2021-08-12T01:52:00Z,00040200,00000000,0004.42,0003.35,0002.31,0000.17,0000.68,0000.50,0001.06,0000.95,0000.96,19.0,25.0,08.6,06.0,0674.8,31.0
2021-08-12T01:53:00Z,00040200,00000000,0005.13,0002.96,0002.18,0001.30,0000.20,0000.53,0000.82,0000.69,0000.03,18.9,25.0,08.6,05.9,0674.8,31.0
2021-08-12T01:54:00Z,00040200,00000000,0004.15,0003.42,0002.02,0000.29,0000.51,0000.44,0000.96,0000.52,0000.81,18.9,24.9,08.6,05.9,0674.8,31.0
2021-08-12T01:55:00Z,00040200,00000000,0004.77,0003.24,0001.74,0000.61,0000.16,0000.32,0000.78,0001.01,0000.57,18.9,24.9,08.7,06.0,0674.8,31.0
2021-08-12T01:56:00Z,00040200,00000000,0004.15,0003.29,0001.99,0000.41,0000.53,0000.10,0000.97,0001.00,0000.55,18.8,24.9,08.6,06.0,0674.8,31.0
2021-08-12T01:57:00Z,00040200,40000000,,,,,,,0001.17,0001.06,0001.15,18.9,24.9,08.5,05.9,0675.0,31.0
2021-08-12T01:58:00Z,00040200,60000000,,,,,,,-000.47,-000.61,-000.25,18.6,25.1,09.1,06.1,0673.8,31.0
2021-08-12T01:59:00Z,00040200,20000000,,,,,,,-000.32,-000.08,-000.21,18.6,25.2,08.8,05.9,0673.8,31.0
